Orbital Elements at Epoch 2459200.5 (2020-Dec-17.0) TDB
Reference: JPL 30 (heliocentric ecliptic J2000)
Element | Value | Uncertainty (1-sigma) | Units |
e | .1230279149139345 | 4.0891e-08 | |
a | 3.100080319397112 | 1.8237e-08 | au |
q | 2.718683901635961 | 1.2954e-07 | au |
i | 1.166971964250798 | 4.7081e-06 | deg |
node | 40.53015401550378 | 0.00020503 | deg |
peri | 203.1448498805924 | 0.00020593 | deg |
M | 267.5733170196174 | 2.1146e-05 | deg |
tp | 2459712.361791617045 (2022-May-12.86179162) | 0.00011894 | TDB |
period | 1993.6909887943 5.46 | 1.7592e-05 4.816e-08 | d yr |
n | .1805696078396345 | 1.5934e-09 | deg/d |
Q | 3.481476737158263 | 2.0481e-08 | au |
|
| | Orbit Determination Parameters
Additional Information
|